Temperature
8 7 7 7 7 8 8 8 8 9 10 9 9 9 10 11 11 12 13 14 15 16 17 18 19 19 19 19 19 19 18 17 16 15 14 14 13 13 12 12 12 11 11 11
6 6 6 7 7 7 7 7 7 8 9 10 8 9 10 10 10 12 12 13 14 16 17 18 18 18 18 18 18 18 17 16 16 15 14 14 13 12 12 12 11 11 11 11
6 6 7 7 6 6 6 6 6 7 8 8 8 9 9 10 11 12 13 14 14 15 17 17 18 18 17 17 17 17 16 15 15 14 14 13 12 12 11 11 11 11 11 11
5 6 7 6 6 6 6 7 7 7 6 6 7 7 8 9 10 11 12 13 14 16 17 17 18 18 17 16 16 16 15 14 14 14 13 13 12 12 11 11 11 11 11 10
6 6 5 6 6 6 5 7 7 7 6 6 6 6 8 9 9 10 10 13 14 15 16 17 18 18 17 16 15 15 14 13 13 13 13 12 12 12 11 11 11 11 10 10
6 6 6 6 7 7 7 7 7 6 6 6 6 6 7 8 9 10 11 13 15 16 17 17 18 17 16 15 14 14 13 13 13 13 12 12 12 11 11 11 11 11 10 9
6 6 6 6 6 6 6 6 6 6 6 6 7 7 8 8 10 11 12 13 15 16 16 16 17 16 15 14 14 13 12 12 12 12 12 11 11 12 12 12 11 10 9 9
6 6 6 6 6 5 5 6 6 6 6 5 7 7 8 9 10 12 13 14 15 15 15 15 16 16 16 14 13 12 12 12 12 12 11 11 11 11 11 11 10 9 9 8
6 5 6 6 6 7 5 5 6 6 6 6 6 7 8 10 9 10 11 12 13 14 15 14 15 15 15 14 13 12 12 12 12 11 11 11 11 11 11 10 9 8 8 7
5 5 5 6 6 6 6 6 5 5 6 6 6 6 8 10 10 10 10 10 12 13 13 13 13 14 14 13 13 12 12 12 12 11 11 11 10 10 10 9 8 8 7 6
5 5 5 5 5 6 6 6 6 6 6 5 6 7 9 10 10 10 11 11 12 12 12 11 11 12 13 12 12 12 12 11 11 11 11 10 10 10 9 8 7 7 6 6
6 5 5 5 6 7 6 6 6 6 6 5 5 8 11 10 10 10 10 11 11 11 10 9 9 10 12 12 12 11 11 11 11 11 10 10 9 9 8 7 7 6 6 5
5 5 5 5 5 6 5 6 6 6 6 5 5 8 11 10 11 11 10 10 9 8 8 7 8 9 11 11 11 11 11 11 10 10 10 9 9 8 7 7 6 6 5 4
7 5 5 6 6 6 5 5 6 6 6 6 7 8 10 10 11 10 10 9 8 7 7 7 8 10 11 11 11 10 10 10 10 9 9 8 8 7 7 6 5 5 4 3
6 5 5 6 6 5 5 6 6 6 6 6 8 9 10 10 10 10 10 9 7 7 6 7 8 10 10 10 10 10 9 9 9 9 8 7 7 6 6 5 4 4 3 2
6 5 5 6 6 6 6 6 6 6 7 7 8 9 10 10 10 9 9 8 7 7 6 7 9 10 10 10 10 9 9 8 8 8 7 7 6 5 5 4 3 3 2 1
6 5 6 6 7 6 7 7 7 7 7 8 7 9 10 10 9 8 8 8 8 7 7 8 9 10 10 10 9 9 8 8 7 7 6 6 5 4 3 3 2 2 1 0
6 6 6 6 7 8 9 9 9 8 8 8 9 9 10 9 8 7 7 8 8 8 7 8 9 10 10 9 9 8 8 7 6 6 5 4 3 3 2 2 1 1 0 -0
7 6 6 7 8 8 9 9 8 8 8 9 9 9 9 8 8 8 7 9 9 9 8 9 10 10 10 9 9 8 7 6 5 4 4 3 2 2 1 1 0 -0 -0 -1
6 6 6 7 8 9 10 9 9 9 9 9 9 9 8 7 9 8 7 9 9 9 9 9 9 9 9 9 8 7 6 5 4 3 3 2 1 1 1 0 -0 -1 -1 -1
5 5 6 7 7 8 9 8 9 9 10 9 9 9 8 7 8 6 7 9 9 9 9 9 9 8 8 8 7 6 5 4 3 2 2 1 1 0 -0 -1 -1 -1 -1 -2
6 6 6 6 7 8 9 8 8 9 9 8 9 9 8 6 6 6 7 8 8 8 8 8 8 7 7 7 6 5 4 3 2 1 1 0 -0 -0 -1 -1 -1 -2 -2 -2
5 6 6 6 8 8 8 9 9 9 8 7 8 8 9 7 5 5 6 6 7 7 7 7 7 7 6 5 5 4 3 2 1 0 0 -0 -1 -1 -1 -1 -2 -2 -3 -3
6 6 6 6 7 7 9 9 9 9 8 7 8 9 9 8 6 6 6 6 6 7 7 6 6 5 4 3 2 2 2 1 0 -0 -0 -1 -1 -1 -2 -2 -3 -3 -3 -4
7 6 6 7 7 7 9 9 10 10 9 8 7 8 8 8 7 6 6 6 6 6 6 5 5 4 2 1 1 1 0 -0 -0 -1 -1 -1 -2 -2 -2 -3 -3 -4 -4 -5
5 6 7 8 8 8 8 9 10 10 10 9 8 6 7 8 7 7 6 6 5 5 4 4 3 3 1 1 0 -0 -1 -1 -1 -1 -2 -2 -2 -3 -3 -3 -4 -4 -5 -6
Wind_Speed
4 5 9 10 11 7 1 4 7 6 7 8 12 19 15 11 13 13 13 13 12 12 11 7 7 7 6 6 9 13 15 14 14 12 10 10 8 7 7 7 11 13 13 14
2 10 9 5 5 6 8 11 11 9 7 9 14 25 20 14 16 18 18 17 15 13 8 6 7 6 6 7 10 13 14 13 12 11 7 6 8 7 7 6 9 12 13 13
11 3 6 9 8 8 9 9 8 9 8 7 13 20 16 14 19 21 20 17 16 16 13 11 10 9 8 8 11 13 13 13 13 13 12 12 8 7 5 6 5 7 12 14
9 8 4 5 7 9 10 8 10 9 7 6 6 10 7 8 11 14 14 13 14 15 13 11 11 11 10 9 9 12 13 14 15 16 16 17 10 8 6 5 5 6 11 12
8 6 10 13 10 9 7 6 9 9 8 10 7 10 11 7 11 11 13 14 15 15 15 15 15 14 10 10 11 12 13 14 15 14 17 15 11 8 7 8 9 8 7 9
10 5 6 6 6 10 6 3 5 6 6 11 11 11 11 7 9 11 14 14 15 15 15 14 11 10 9 10 11 13 14 13 12 13 13 15 16 16 14 10 9 6 5 6
10 13 7 5 4 5 7 6 4 6 8 8 9 10 12 8 11 14 15 14 13 11 12 13 15 15 15 15 14 14 16 14 12 12 12 13 16 15 15 12 10 8 5 4
6 7 12 10 11 9 12 12 9 6 6 5 7 12 10 10 13 14 15 13 10 9 11 14 17 19 18 18 16 16 16 14 12 12 11 10 12 10 9 9 8 7 5 5
6 6 3 9 7 9 8 11 9 6 5 6 7 8 9 9 11 14 16 14 11 10 13 16 16 16 17 18 16 16 16 14 12 12 12 11 11 11 11 9 8 7 6 6
7 6 5 5 7 10 8 6 6 9 7 9 8 8 7 8 9 12 14 15 14 11 13 15 15 14 14 13 12 12 14 14 12 12 11 11 11 11 11 10 9 8 7 7
7 7 4 4 11 13 12 10 10 7 5 6 6 8 7 7 4 10 14 14 12 12 14 15 13 13 13 13 13 13 13 14 13 12 13 13 12 12 11 10 9 8 7 7
10 6 7 10 9 10 13 15 15 10 8 6 6 11 5 4 6 11 14 10 3 7 10 12 13 14 14 15 13 13 13 14 13 13 14 13 12 12 11 9 8 8 8 7
11 7 5 5 5 8 10 15 17 13 6 7 9 11 3 6 12 12 10 4 5 10 13 14 14 14 14 14 13 12 13 14 14 14 14 13 12 11 10 9 8 8 7 7
11 8 11 11 6 6 9 13 18 17 11 12 18 20 16 14 17 16 9 2 8 11 13 14 13 12 13 13 13 14 13 14 14 14 14 12 10 10 9 8 8 7 7 7
8 8 13 19 19 14 14 15 19 22 20 14 14 17 19 13 14 15 7 6 10 12 14 14 13 12 13 13 13 13 14 13 14 14 13 11 9 9 9 8 8 7 7 6
7 7 8 14 18 19 21 20 21 23 22 22 17 18 11 9 9 9 6 10 13 13 14 13 14 14 15 15 14 14 13 12 12 13 12 10 10 9 8 8 7 7 6 5
6 5 5 8 9 8 12 17 23 20 18 17 21 20 9 10 9 4 5 9 12 13 13 15 15 14 14 15 16 15 13 12 12 12 11 10 9 9 8 8 7 6 4 3
7 4 3 6 7 5 6 5 11 16 17 17 15 10 8 9 4 3 3 5 9 12 14 13 14 13 13 12 13 13 13 13 13 12 10 9 9 9 7 7 6 4 3 3
9 4 3 4 6 6 6 2 6 8 8 15 17 14 7 1 3 1 2 0 7 10 12 13 13 14 14 15 15 16 13 12 12 11 10 9 9 8 7 7 5 3 3 3
4 4 3 4 5 5 5 3 4 4 5 10 17 15 8 4 3 2 5 6 8 11 13 14 14 15 14 13 15 16 14 13 11 10 9 8 8 8 7 6 4 2 2 2
4 4 5 5 4 6 6 0 6 3 5 4 10 11 9 6 2 4 6 8 10 13 14 15 15 14 13 13 15 16 14 11 10 11 10 9 8 8 7 5 3 2 3 4
7 6 5 4 4 5 3 4 6 6 4 3 4 7 9 9 9 8 10 11 12 14 14 15 15 13 11 12 16 16 12 10 11 11 10 9 7 6 5 5 3 3 4 5
7 7 5 7 7 5 3 4 5 3 3 1 4 7 13 11 9 10 10 11 11 13 13 13 16 15 11 9 14 16 10 11 12 11 9 8 7 6 5 4 4 3 3 3
4 4 3 5 7 6 5 3 3 4 2 3 7 10 10 12 13 13 12 11 11 12 12 13 16 15 11 10 12 13 11 11 12 10 8 6 6 5 4 3 3 2 3 4
5 5 3 6 7 6 5 1 3 5 8 11 11 10 13 18 16 14 13 12 12 12 11 11 14 14 13 12 12 10 10 11 11 9 7 6 5 4 3 3 2 3 3 5
6 7 7 6 6 5 3 4 6 7 7 11 15 13 10 13 15 14 12 11 12 12 12 13 14 14 12 12 10 8 8 9 9 7 5 4 3 3 3 3 4 6 7 11
Wind_Direction
172 192 210 205 211 224 220 268 271 277 314 310 282 283 280 270 274 276 275 269 262 255 258 255 226 199 172 154 148 150 153 148 141 137 132 127 118 108 97 95 103 108 109 105
174 238 226 210 213 240 253 264 272 285 277 284 284 283 279 255 255 257 260 261 259 256 253 225 204 191 190 168 156 153 154 152 145 139 130 123 121 108 95 96 97 103 104 100
212 243 190 192 203 224 239 243 253 265 297 280 291 287 264 243 238 245 246 242 241 243 236 216 200 199 190 177 164 156 151 147 138 130 121 119 110 106 106 103 89 87 97 96
240 234 235 220 213 206 250 221 228 245 255 266 234 284 260 236 246 248 249 239 232 231 222 207 194 194 190 177 158 149 149 147 144 141 142 144 144 142 142 133 115 95 93 96
227 203 213 230 223 192 222 212 217 228 237 256 230 263 274 215 248 252 251 241 232 225 213 202 196 191 172 156 153 150 146 149 152 151 150 146 135 124 123 118 112 99 88 90
240 208 207 218 224 203 197 240 261 238 238 259 219 225 273 205 234 243 248 242 231 220 208 199 178 153 148 150 152 151 150 152 153 148 147 144 139 137 138 133 124 112 99 85
247 230 209 174 188 183 182 205 235 226 223 245 185 214 257 221 223 228 242 247 238 219 196 175 162 163 163 162 161 157 154 152 149 144 142 144 144 145 145 142 135 128 113 101
256 250 202 194 201 190 190 194 213 225 228 261 215 233 257 241 240 244 248 250 243 207 183 179 177 173 168 166 164 161 157 151 146 140 132 128 130 131 131 128 127 120 118 118
240 266 242 206 190 184 186 206 216 249 254 262 251 269 293 259 259 259 258 257 243 208 186 183 178 173 167 165 165 161 152 145 140 134 127 124 123 125 125 116 107 109 115 110
202 258 254 209 176 215 214 179 183 214 229 243 262 261 252 272 286 287 278 262 242 208 189 180 173 166 160 154 144 141 143 139 132 127 126 125 119 119 119 115 113 111 104 98
187 229 266 198 203 202 198 210 217 224 210 210 254 257 224 227 290 319 309 281 243 205 185 172 159 146 137 132 132 131 128 126 124 120 118 118 115 113 110 110 112 110 103 98
193 225 247 231 224 206 205 210 209 224 221 210 236 260 247 259 318 342 329 305 233 161 147 141 136 133 133 131 129 129 128 125 122 121 118 116 116 113 110 110 111 110 104 95
173 211 255 270 236 208 223 221 217 222 230 225 236 259 236 295 320 337 334 326 118 124 127 129 131 134 134 130 128 128 126 124 122 121 119 118 116 113 112 114 113 108 102 91
179 215 224 237 233 199 218 218 216 217 230 237 241 260 279 301 309 318 319 173 135 135 135 135 135 134 132 129 129 128 124 125 125 122 121 120 118 118 119 116 110 104 98 88
201 245 245 252 253 248 240 229 218 219 226 236 250 258 269 283 292 297 284 176 151 149 148 147 144 139 132 129 129 129 128 128 127 123 122 121 120 118 116 110 105 97 89 82
213 258 266 267 259 251 249 239 229 227 229 237 255 265 264 267 275 281 248 183 169 164 159 151 147 144 141 140 138 134 132 129 126 125 124 125 123 117 113 109 104 94 83 70
210 242 271 277 282 262 252 236 225 224 223 224 236 246 262 281 287 283 246 195 178 169 162 158 156 152 148 146 143 139 134 126 122 123 125 126 121 115 112 109 99 89 80 59
215 234 266 287 292 267 273 282 200 209 220 216 230 244 243 264 274 222 252 203 169 162 159 153 147 141 138 135 132 126 126 124 123 123 123 122 117 113 109 101 93 85 68 45
199 208 275 289 300 298 305 297 164 177 224 212 222 235 239 243 287 227 16 358 155 151 146 142 138 138 137 136 133 127 122 120 121 123 122 120 118 115 109 101 92 77 56 27
165 180 248 296 310 322 323 324 134 130 277 212 206 219 201 163 275 312 24 48 94 112 123 126 127 129 130 132 131 125 124 123 124 123 117 113 113 113 111 107 95 73 55 357
158 193 221 246 275 282 293 40 117 161 274 296 196 193 168 174 174 77 64 67 87 102 112 119 122 125 129 130 125 121 122 121 119 113 108 104 106 111 113 105 96 74 36 6
188 188 209 199 242 279 334 124 185 240 305 348 141 140 126 112 99 91 86 88 95 102 107 113 114 111 112 120 120 117 114 114 111 109 106 105 105 108 108 102 84 57 28 1
206 199 197 203 224 259 277 246 276 292 291 1 116 124 127 122 115 109 100 99 100 105 107 110 113 108 99 103 117 117 115 115 112 109 109 109 101 91 89 81 60 35 9 345
250 196 207 264 270 271 271 280 344 6 25 86 113 123 125 123 125 119 114 110 106 104 107 112 110 107 96 89 100 113 119 117 115 114 114 112 104 90 68 51 31 13 341 321
229 178 213 262 274 290 286 224 87 74 85 91 88 96 121 125 125 122 117 112 109 105 100 101 106 107 104 103 103 110 117 118 115 113 113 106 96 88 55 24 354 330 287 284
198 181 186 228 239 211 263 130 126 121 114 116 113 104 105 120 123 118 112 110 109 105 103 103 105 109 110 108 106 108 116 120 121 118 112 103 92 70 45 8 336 325 321 324
Height
1476 1479 1477 1477 1478 1478 1479 1479 1479 1476 1472 1473 1468 1460 1457 1455 1453 1449 1446 1445 1444 1445 1448 1450 1451 1452 1453 1455 1457 1460 1463 1466 1470 1474 1478 1483 1488 1491 1495 1498 1500 1502 1504 1505
1477 1476 1473 1474 1476 1477 1478 1478 1478 1477 1474 1471 1465 1453 1448 1447 1445 1443 1441 1439 1439 1440 1441 1444 1446 1447 1449 1450 1453 1456 1459 1462 1466 1470 1476 1481 1485 1489 1493 1496 1498 1501 1503 1503
1472 1470 1468 1472 1475 1478 1478 1479 1479 1479 1475 1471 1468 1446 1437 1432 1431 1430 1429 1429 1430 1433 1434 1437 1440 1442 1444 1446 1448 1451 1455 1459 1463 1468 1474 1478 1482 1486 1490 1493 1496 1499 1501 1501
1470 1468 1469 1470 1472 1475 1475 1473 1475 1475 1478 1477 1469 1455 1431 1427 1425 1422 1420 1420 1420 1423 1426 1429 1433 1436 1439 1442 1445 1448 1452 1456 1461 1466 1471 1475 1478 1482 1487 1491 1494 1497 1498 1499
1463 1463 1464 1466 1467 1471 1472 1470 1471 1471 1474 1474 1468 1465 1428 1425 1421 1418 1415 1412 1411 1413 1417 1421 1425 1429 1433 1437 1441 1445 1448 1453 1459 1464 1469 1473 1477 1481 1485 1489 1492 1495 1496 1496
1460 1460 1461 1461 1462 1465 1468 1470 1470 1469 1471 1466 1456 1461 1429 1424 1416 1412 1407 1403 1401 1403 1407 1412 1418 1422 1427 1433 1438 1441 1445 1451 1457 1462 1467 1470 1474 1478 1482 1486 1490 1492 1493 1494
1454 1454 1456 1458 1461 1463 1466 1471 1471 1467 1461 1456 1446 1444 1422 1414 1407 1403 1399 1395 1394 1396 1399 1404 1409 1415 1422 1428 1433 1437 1442 1448 1454 1460 1464 1469 1473 1478 1482 1485 1488 1490 1491 1492
1452 1451 1449 1450 1453 1457 1459 1462 1463 1463 1459 1454 1442 1431 1414 1405 1399 1395 1392 1390 1389 1391 1394 1398 1402 1409 1415 1422 1428 1433 1439 1445 1452 1457 1462 1467 1472 1477 1482 1485 1487 1489 1489 1490
1450 1450 1445 1445 1446 1450 1454 1454 1453 1455 1449 1448 1437 1422 1409 1398 1396 1392 1388 1385 1385 1386 1388 1392 1397 1404 1410 1417 1424 1430 1436 1443 1449 1455 1460 1465 1470 1476 1480 1483 1485 1487 1487 1487
1448 1450 1444 1442 1445 1446 1448 1447 1451 1450 1445 1440 1433 1424 1411 1398 1394 1390 1385 1380 1378 1380 1383 1387 1392 1399 1406 1414 1422 1430 1436 1442 1448 1453 1458 1464 1469 1474 1478 1481 1483 1484 1485 1485
1444 1447 1444 1442 1438 1437 1442 1443 1441 1439 1438 1441 1433 1414 1395 1392 1390 1387 1381 1375 1372 1373 1377 1382 1388 1394 1402 1412 1421 1428 1434 1440 1446 1452 1457 1463 1468 1472 1475 1478 1480 1482 1482 1481
1440 1442 1438 1434 1427 1427 1429 1428 1432 1432 1430 1431 1430 1407 1387 1387 1385 1382 1378 1372 1368 1370 1375 1380 1386 1392 1401 1410 1419 1427 1433 1439 1445 1451 1457 1462 1466 1470 1473 1476 1478 1479 1478 1478
1434 1437 1433 1428 1427 1425 1424 1421 1421 1423 1423 1423 1421 1400 1382 1383 1382 1381 1379 1374 1370 1371 1376 1381 1386 1393 1402 1410 1419 1427 1433 1438 1444 1450 1456 1461 1465 1469 1472 1474 1475 1475 1475 1475
1429 1429 1426 1419 1411 1414 1413 1413 1413 1417 1414 1412 1403 1390 1383 1384 1383 1381 1379 1376 1374 1375 1378 1382 1388 1395 1403 1411 1419 1426 1432 1438 1444 1450 1455 1460 1464 1467 1470 1471 1472 1472 1472 1471
1424 1420 1415 1410 1407 1407 1404 1404 1405 1406 1402 1402 1390 1387 1381 1384 1384 1381 1378 1376 1376 1377 1380 1384 1389 1396 1404 1412 1420 1427 1432 1438 1444 1450 1454 1459 1462 1465 1467 1468 1469 1469 1469 1468
1419 1415 1410 1401 1397 1396 1394 1392 1394 1394 1394 1392 1389 1383 1378 1380 1381 1378 1375 1374 1375 1378 1381 1385 1391 1398 1405 1413 1420 1426 1432 1438 1444 1449 1453 1457 1460 1463 1464 1466 1466 1466 1466 1465
1412 1411 1405 1394 1388 1387 1381 1374 1377 1380 1381 1385 1385 1376 1375 1377 1377 1377 1375 1373 1374 1378 1382 1386 1392 1399 1406 1413 1420 1427 1433 1438 1444 1448 1452 1455 1458 1460 1462 1463 1463 1463 1463 1462
1405 1406 1404 1395 1386 1375 1367 1361 1362 1369 1372 1375 1373 1371 1373 1374 1374 1374 1373 1373 1375 1378 1383 1388 1394 1401 1408 1415 1422 1428 1434 1438 1443 1447 1451 1454 1456 1458 1460 1461 1461 1461 1460 1459
1399 1402 1401 1393 1380 1372 1364 1361 1362 1366 1367 1365 1367 1368 1371 1373 1373 1372 1371 1372 1375 1379 1383 1388 1395 1401 1409 1416 1422 1428 1433 1438 1442 1446 1450 1453 1455 1457 1458 1459 1459 1458 1458 1456
1398 1400 1401 1395 1385 1375 1367 1361 1360 1365 1364 1356 1359 1363 1368 1372 1373 1371 1371 1372 1375 1380 1385 1390 1396 1404 1410 1417 1423 1428 1433 1438 1442 1446 1449 1452 1454 1455 1456 1457 1456 1456 1454 1453
1400 1401 1399 1396 1389 1379 1368 1363 1365 1370 1362 1354 1354 1358 1365 1369 1372 1373 1373 1374 1378 1382 1387 1392 1398 1405 1412 1418 1424 1429 1434 1438 1442 1446 1448 1451 1453 1454 1455 1454 1454 1453 1451 1449
1393 1395 1394 1393 1390 1381 1366 1366 1368 1362 1356 1355 1354 1357 1363 1368 1371 1373 1375 1377 1381 1385 1390 1395 1400 1407 1414 1421 1426 1430 1435 1439 1442 1445 1448 1450 1452 1452 1452 1452 1451 1450 1448 1445
1388 1385 1384 1384 1379 1369 1366 1365 1363 1360 1357 1356 1355 1358 1362 1367 1372 1375 1378 1382 1386 1390 1394 1400 1405 1411 1418 1424 1429 1432 1435 1439 1443 1446 1448 1449 1450 1451 1451 1450 1449 1447 1444 1442
1381 1379 1379 1377 1370 1366 1364 1363 1361 1359 1357 1356 1357 1360 1363 1367 1373 1378 1382 1387 1391 1395 1400 1405 1410 1415 1420 1426 1431 1434 1437 1441 1444 1446 1447 1448 1449 1449 1449 1448 1446 1444 1441 1438
1375 1377 1377 1374 1367 1363 1360 1361 1361 1361 1360 1360 1362 1365 1368 1371 1377 1383 1387 1392 1396 1401 1406 1411 1415 1418 1423 1428 1432 1436 1439 1442 1444 1445 1446 1447 1447 1447 1446 1445 1443 1441 1438 1435
1369 1371 1372 1369 1363 1363 1361 1361 1362 1363 1363 1365 1366 1370 1375 1379 1382 1388 1393 1398 1402 1406 1411 1415 1419 1422 1426 1430 1434 1437 1440 1442 1443 1444 1445 1446 1446 1445 1444 1443 1441 1438 1436 1433